Theta_e
350 356 359 359 360 362 363 360 361 361 359 359 360 359 359 359 359 360 358 358 360 358 358 360 360 361 362 363 363 362 363 363 363 363 363 362 361 360 357 354 361 353 359
353 356 360 360 360 361 363 362 362 360 361 360 359 358 358 358 358 358 358 358 358 360 360 361 361 362 362 362 361 363 362 361 361 358 360 362 362 362 360 358 360 354 357
352 357 359 362 361 361 361 363 361 359 359 358 358 357 357 357 357 358 358 358 357 359 360 360 360 361 360 359 360 360 360 359 359 360 359 355 357 361 361 359 354 355 357
352 357 358 361 362 361 361 362 361 358 358 359 359 358 358 358 358 358 358 358 359 359 358 358 359 359 359 359 359 359 360 358 357 360 358 352 353 361 361 361 355 355 359
351 355 360 361 363 361 361 360 360 360 360 359 359 358 358 357 357 357 356 358 359 359 358 358 357 357 358 358 359 358 357 356 356 356 354 357 349 358 360 360 358 355 356
349 353 361 363 362 362 362 361 361 360 359 359 358 358 357 356 355 355 355 356 357 357 358 357 357 357 357 358 358 358 358 357 356 354 350 355 349 357 358 357 356 357 355
349 353 357 364 362 362 362 361 361 361 360 359 358 357 356 356 356 356 356 355 356 357 356 356 357 357 356 356 356 356 355 356 357 351 349 350 356 359 358 356 358 358 356
349 352 355 362 362 362 362 362 361 360 360 359 359 358 358 358 357 357 357 357 357 357 357 357 357 358 356 357 357 356 354 356 355 354 349 354 359 360 358 357 357 355 357
349 352 354 356 361 361 362 361 361 360 359 359 359 358 358 357 357 358 356 356 357 358 356 358 356 358 359 357 357 356 356 358 356 356 350 351 361 359 358 357 355 354 355
348 349 352 352 355 358 360 363 362 359 361 360 360 360 360 361 361 358 360 360 359 358 358 357 358 358 359 358 358 358 357 358 350 351 352 352 359 359 359 358 357 355 355
346 347 349 350 353 359 360 362 362 361 361 361 362 361 361 360 360 362 362 361 359 358 358 359 359 359 360 361 362 360 358 352 354 350 352 355 357 356 359 357 355 356 356
344 345 349 351 350 353 354 363 361 358 361 362 361 361 360 358 359 357 361 359 356 358 360 360 361 361 359 350 357 361 355 351 352 349 351 356 357 356 357 354 357 356 354
344 345 347 348 351 352 353 355 355 356 357 354 357 356 357 354 355 350 355 355 356 360 356 358 358 357 354 355 355 355 351 354 347 350 352 358 355 353 356 355 353 355 354
343 344 345 348 352 351 352 351 354 352 355 351 354 358 359 353 352 354 355 357 360 357 354 355 355 359 355 358 355 357 353 352 353 351 353 355 356 356 357 356 354 352 354
340 343 344 349 354 352 352 348 349 354 350 350 352 355 356 354 358 360 363 362 361 355 354 355 359 351 357 354 353 349 349 354 352 353 355 354 353 358 358 357 354 350 349
341 342 344 348 354 354 353 355 350 349 350 354 353 352 356 354 358 362 361 360 355 355 354 359 358 356 354 353 355 356 355 355 359 357 354 352 358 357 358 358 356 353 350
341 344 345 346 351 354 357 360 356 352 351 352 354 359 361 360 362 367 362 359 358 358 353 351 351 362 357 355 353 350 352 354 356 358 358 355 357 358 357 357 355 353 350
342 346 347 347 349 350 354 358 357 356 356 360 364 358 363 365 366 366 360 357 358 368 358 351 350 353 361 355 350 353 356 358 358 357 357 361 358 355 355 357 357 355 354
343 348 349 351 351 352 355 356 358 359 357 361 361 365 368 365 367 367 365 366 368 357 358 350 348 353 357 352 350 349 350 359 357 358 358 359 357 358 357 360 358 357 357
348 350 352 352 354 357 356 357 356 356 357 364 363 363 364 365 368 373 365 369 369 363 353 350 351 354 353 351 350 357 363 357 355 355 353 357 359 360 365 360 362 360 357
350 352 353 352 356 355 353 353 353 352 355 357 359 363 365 366 369 369 368 367 361 360 358 354 352 352 359 359 351 356 351 353 354 356 358 358 359 358 359 359 360 358 359
348 352 355 356 358 356 355 356 355 356 358 362 368 364 368 368 369 368 369 361 360 356 356 356 355 353 353 354 355 353 353 349 355 355 357 355 357 358 358 357 356 358 359
347 350 355 359 360 360 365 357 359 361 362 358 359 360 366 368 369 369 366 363 361 359 358 357 358 357 354 360 361 357 347 344 350 354 353 354 354 358 354 359 357 359 360
347 349 354 360 361 361 365 363 370 356 353 354 359 368 366 368 367 367 364 364 365 363 365 362 363 361 361 355 357 360 358 355 344 342 352 353 351 348 350 359 356 355 356
346 347 351 361 368 369 369 370 360 362 355 356 356 369 367 369 367 363 363 362 361 359 362 362 361 361 361 358 357 354 354 350 350 340 331 343 345 348 348 353 351 359 355
345 346 348 363 370 369 368 365 370 372 366 357 360 359 358 364 363 365 362 364 369 364 361 361 362 361 361 356 353 346 340 337 335 334 333 337 335 341 348 355 352 350 351
Wind_Speed
10 14 10 11 13 14 16 17 15 15 15 14 14 13 13 13 13 13 12 11 11 11 10 10 11 11 12 12 11 11 11 11 12 11 13 15 14 13 9 6 11 14 13
18 15 13 13 14 14 15 16 14 14 14 13 13 13 13 13 13 13 12 11 11 10 11 10 10 11 11 10 10 9 9 8 7 7 12 16 16 13 12 13 17 13 12
17 17 15 13 15 15 15 15 15 14 14 12 12 11 11 11 12 11 12 11 11 10 11 10 9 10 10 9 8 8 7 5 2 7 10 7 15 14 13 14 13 11 12
18 17 16 13 15 16 16 15 13 13 13 12 11 11 10 10 10 10 10 10 10 10 9 9 8 8 8 8 8 6 5 3 3 9 2 9 6 12 13 12 11 11 11
19 19 18 16 14 16 15 14 14 13 13 11 11 10 9 8 8 8 8 8 8 8 8 7 6 7 7 6 6 5 4 1 6 10 8 13 15 11 10 12 11 9 5
17 21 17 16 15 14 14 13 14 13 12 10 9 9 7 6 6 5 4 6 5 6 5 5 6 6 6 6 5 4 4 4 9 6 3 17 15 9 9 9 8 10 9
20 19 16 14 14 14 13 13 12 11 11 9 8 7 6 5 4 4 4 4 3 3 3 3 4 4 5 5 4 3 4 7 11 2 2 4 14 12 9 8 9 7 8
21 19 16 14 13 12 12 10 10 9 9 8 7 6 5 4 3 3 3 3 3 3 3 3 3 3 3 4 4 3 3 8 8 2 5 9 14 12 8 6 6 6 6
18 19 15 15 12 10 10 9 8 8 8 7 6 6 5 4 3 3 4 4 4 4 4 4 3 3 5 5 4 4 3 8 11 6 5 7 14 11 8 5 5 5 5
13 16 15 17 15 13 12 10 8 8 7 6 5 6 6 9 8 7 7 9 6 5 5 3 5 5 5 6 6 6 6 10 12 8 1 9 13 11 7 7 5 3 4
10 13 14 16 14 12 12 11 9 8 7 7 8 7 11 6 11 13 12 9 5 5 6 6 5 6 8 11 13 12 10 8 7 10 3 14 13 11 8 11 7 6 6
13 12 8 11 12 10 8 12 10 10 10 10 9 8 7 5 4 6 8 9 6 6 8 9 9 9 10 10 9 13 8 9 8 3 6 10 14 12 12 10 12 11 9
13 11 12 11 9 11 8 8 7 6 5 5 2 4 1 2 6 6 4 3 6 12 8 9 9 8 6 1 4 5 5 8 5 4 6 15 13 11 14 13 11 9 10
14 12 13 14 8 8 7 5 3 6 5 5 8 5 1 5 3 2 4 6 3 2 1 5 4 4 7 4 6 5 6 6 7 3 9 3 8 14 15 15 12 10 9
14 13 13 14 8 7 5 6 4 2 4 6 4 7 5 4 1 3 1 0 3 3 5 3 6 4 2 7 6 4 6 13 7 5 6 15 17 20 17 16 16 15 15
13 13 13 13 10 9 7 5 4 5 4 2 4 5 7 6 3 3 2 3 2 3 6 4 4 5 6 5 7 9 9 5 8 7 5 7 18 23 18 17 17 19 19
12 13 13 12 13 9 8 8 6 6 6 6 5 4 5 6 6 5 2 4 5 4 4 1 5 5 2 4 7 8 8 12 7 11 7 4 8 12 15 17 18 21 23
13 13 11 10 13 12 10 7 7 5 6 4 1 3 8 6 6 6 4 8 7 3 4 3 4 4 4 5 4 7 8 9 11 6 9 5 5 7 11 17 19 22 25
14 13 12 11 10 13 9 7 7 4 5 1 3 3 6 7 7 6 6 7 7 4 5 4 4 5 4 4 4 6 5 8 7 4 10 8 7 7 8 9 18 19 24
13 14 12 11 9 8 8 6 6 6 6 4 6 5 3 5 7 5 7 7 4 4 3 4 6 6 5 5 7 5 6 4 6 6 7 4 7 9 5 6 5 8 19
17 13 13 12 11 9 8 8 7 7 6 5 5 2 3 5 6 5 6 6 5 2 2 6 6 9 5 5 7 3 5 6 8 6 7 4 5 6 6 5 5 6 6
16 15 14 12 12 11 9 7 6 6 5 4 3 3 4 5 3 5 2 4 4 3 1 4 6 4 3 4 2 7 3 2 2 1 4 4 2 3 1 2 4 2 3
17 16 15 14 13 12 11 8 6 3 3 4 6 7 6 4 1 2 1 2 2 3 3 5 6 4 4 4 5 4 3 2 3 2 3 3 3 1 2 2 3 3 1
16 17 15 15 14 13 12 9 9 7 8 7 6 6 5 3 3 2 1 2 3 1 1 2 2 2 4 3 3 3 3 3 3 2 4 2 6 5 3 2 3 2 3
19 16 16 15 13 12 13 12 9 10 7 5 5 8 1 4 1 2 3 2 2 6 4 4 4 3 3 3 3 3 2 3 5 5 6 3 4 7 4 4 2 5 6
19 18 17 15 13 13 13 14 11 9 9 6 6 5 6 5 6 4 4 3 2 3 3 1 4 6 4 4 6 5 5 6 7 7 7 5 6 3 7 5 3 6 6
Wind_Direction
182 130 138 137 128 122 121 125 122 122 118 116 114 111 106 105 103 100 97 90 95 97 93 95 90 91 88 88 92 94 93 89 91 94 105 102 98 92 78 103 153 98 91
135 131 139 140 127 125 123 131 125 123 121 120 120 113 107 106 107 100 97 89 101 100 95 95 98 95 92 95 92 93 97 102 108 149 135 117 104 90 81 65 66 100 102
127 121 143 139 132 129 128 128 131 127 126 125 124 120 115 113 108 108 100 98 97 98 99 101 102 103 101 100 94 98 100 100 133 232 150 288 97 96 92 86 95 108 112
127 135 133 136 133 128 129 132 135 137 133 135 130 126 122 119 116 112 107 105 103 104 102 100 108 114 110 107 110 99 94 93 267 276 315 81 127 99 98 99 104 114 110
136 120 118 134 132 131 134 134 136 135 137 137 137 131 129 128 126 119 116 110 107 104 105 114 119 121 119 118 124 126 115 179 260 271 54 61 17 94 107 112 124 136 141
132 112 130 132 130 133 135 135 139 142 142 143 144 141 139 142 138 134 136 121 119 118 115 130 138 146 139 136 140 152 155 230 261 261 52 105 145 125 120 107 113 108 119
125 122 138 141 141 139 138 139 140 140 141 145 147 149 150 159 161 163 168 138 144 131 125 162 168 151 165 168 170 180 204 247 273 143 116 129 127 132 117 107 121 127 136
126 144 136 143 146 150 144 143 145 142 144 146 146 147 145 149 159 169 178 154 170 161 132 164 185 173 170 172 177 199 239 274 266 355 109 100 109 112 123 126 134 134 147
131 133 152 157 149 153 155 147 150 143 147 149 159 168 174 176 157 163 162 171 181 186 201 185 185 203 211 189 193 208 249 284 287 169 120 132 115 115 129 131 141 162 167
149 133 155 152 161 169 156 162 157 153 152 161 177 169 194 197 183 186 190 180 183 208 222 190 205 208 218 214 216 221 240 259 263 163 88 113 127 131 139 143 149 190 191
163 160 170 149 153 156 133 149 162 167 165 180 185 187 220 216 183 165 104 129 150 211 212 213 218 217 227 228 220 210 215 248 298 122 325 129 136 145 166 141 169 188 208
178 158 135 121 140 143 157 141 178 169 190 189 187 172 224 195 84 92 120 153 175 213 228 214 212 215 225 243 191 214 228 197 239 204 126 144 146 162 172 185 181 184 192
171 157 161 154 160 164 136 168 172 169 194 145 222 221 182 167 185 188 130 187 204 200 232 187 213 228 340 338 157 234 229 199 264 182 174 153 164 179 187 193 201 206 190
166 164 164 147 177 160 145 187 196 146 201 170 169 199 288 218 180 279 160 186 155 28 239 260 217 201 188 227 281 309 306 324 311 10 80 180 162 189 195 190 192 215 231
166 167 167 138 167 152 180 166 192 217 199 176 168 177 257 244 195 166 14 313 26 227 246 208 223 5 266 252 216 201 232 276 266 278 85 148 203 221 206 193 193 177 237
168 165 155 156 164 178 195 159 183 206 198 224 194 173 203 272 211 148 192 224 278 315 346 355 292 279 313 311 340 289 295 219 273 321 252 224 191 217 200 201 203 170 216
174 160 157 175 166 185 187 173 208 186 197 195 207 153 217 247 210 283 282 256 262 216 252 277 290 328 278 290 265 306 280 281 279 234 239 205 180 195 205 211 209 199 207
176 158 168 185 171 176 184 181 203 214 201 188 289 218 187 231 267 283 255 265 262 227 218 232 283 270 261 238 246 249 243 259 244 218 244 237 229 225 215 222 216 211 206
175 164 182 183 185 160 174 196 219 192 237 194 241 206 185 212 233 248 268 287 293 276 241 213 246 253 279 264 259 252 261 264 290 208 226 211 180 232 257 188 210 207 214
165 165 181 178 181 172 165 214 221 210 226 194 212 196 167 227 243 257 264 282 309 300 126 217 244 226 291 264 280 297 265 284 303 289 278 216 200 209 217 237 195 215 221
159 172 177 187 173 184 197 197 203 217 202 221 230 182 241 246 245 280 297 300 315 298 216 184 213 233 240 238 276 308 260 239 234 239 241 185 159 225 173 216 219 190 209
177 177 179 192 181 197 194 215 209 215 204 198 191 160 211 248 238 263 282 280 9 8 189 204 227 257 290 260 290 294 293 196 166 14 50 40 287 133 277 308 217 288 270
178 188 182 192 188 199 228 202 198 233 270 202 212 216 186 212 181 265 335 356 64 269 183 187 215 239 285 308 271 297 320 17 332 39 123 176 108 164 62 282 135 178 241
194 181 191 188 200 197 208 217 207 212 216 208 190 104 60 58 224 159 8 173 196 307 40 264 195 307 296 317 317 319 305 316 331 293 214 144 174 144 114 23 67 112 12
190 197 186 188 191 214 194 235 195 229 217 232 227 106 187 141 105 155 168 159 152 267 82 349 350 326 323 332 325 287 302 227 204 284 334 176 198 107 68 82 33 35 24
191 194 196 174 186 195 206 206 236 210 246 247 192 177 227 150 157 169 172 193 195 327 142 44 37 41 42 33 338 335 360 354 348 339 322 320 2 111 95 73 67 42 20